• In Hungary
  • List of Countries
  • For 7 days
  • Water Temperature
  • Satellite Maps
  • Weather Map
  • News
  • Weather Widgets
  • user-avatar
    Login

    Hourly Weather Tallahassee

    Today, 19 September, Wednesday

    Time Temperature Precipitation Wind Pressure Humidity
    00:00 +26°C° 0 mm 1 mps 756 mmHg 94%
    01:00 +26°C° 0.2 mm 1 mps 756 mmHg 94%
    02:00 +26°C° 0.2 mm 1 mps 756 mmHg 94%
    03:00 +26°C° 0.2 mm 1 mps 756 mmHg 95%
    04:00 +26°C° 0 mm 1 mps 756 mmHg 94%
    05:00 +26°C° 0 mm 1 mps 756 mmHg 94%
    06:00 +26°C° 0 mm 1 mps 757 mmHg 94%
    07:00 +28°C° 0 mm 1 mps 757 mmHg 84%
    08:00 +28°C° 0 mm 0 mps 757 mmHg 75%
    09:00 +31°C° 0 mm 0 mps 758 mmHg 66%
    10:00 +32°C° 0 mm 0 mps 757 mmHg 60%
    11:00 +35°C° 0 mm 1 mps 757 mmHg 54%
    12:00 +37°C° 0 mm 1 mps 757 mmHg 48%
    13:00 +36°C° 0 mm 1 mps 757 mmHg 50%
    14:00 +35°C° 0 mm 1 mps 756 mmHg 52%
    15:00 +35°C° 0 mm 2 mps 756 mmHg 55%
    16:00 +33°C° 0.1 mm 1 mps 756 mmHg 59%
    17:00 +32°C° 0.1 mm 1 mps 756 mmHg 64%
    18:00 +30°C° 0.1 mm 1 mps 756 mmHg 69%
    19:00 +29°C° 0.2 mm 1 mps 757 mmHg 72%
    20:00 +29°C° 0.2 mm 1 mps 757 mmHg 76%
    21:00 +28°C° 0.2 mm 1 mps 757 mmHg 79%
    22:00 +28°C° 0.1 mm 1 mps 757 mmHg 80%
    23:00 +27°C° 0.1 mm 1 mps 757 mmHg 80%

    Tomorrow, 20 September, Thursday

    Time Temperature Precipitation Wind Pressure Humidity
    00:00 +27°C° 0.1 mm 1 mps 758 mmHg 80%
    01:00 +27°C° 0.1 mm 1 mps 757 mmHg 80%
    02:00 +26°C° 0.1 mm 1 mps 757 mmHg 80%
    03:00 +26°C° 0.1 mm 1 mps 757 mmHg 80%
    04:00 +26°C° 0 mm 1 mps 758 mmHg 80%
    05:00 +26°C° 0 mm 1 mps 758 mmHg 81%
    06:00 +26°C° 0 mm 1 mps 758 mmHg 82%
    07:00 +28°C° 0 mm 1 mps 759 mmHg 74%
    08:00 +30°C° 0 mm 1 mps 759 mmHg 67%
    09:00 +32°C° 0 mm 2 mps 760 mmHg 60%
    10:00 +35°C° 0 mm 2 mps 759 mmHg 55%
    11:00 +36°C° 0 mm 2 mps 759 mmHg 50%
    12:00 +37°C° 0 mm 2 mps 759 mmHg 45%
    13:00 +36°C° 0 mm 2 mps 759 mmHg 49%
    14:00 +35°C° 0 mm 2 mps 758 mmHg 53%
    15:00 +34°C° 0 mm 2 mps 758 mmHg 57%
    16:00 +32°C° 0 mm 2 mps 758 mmHg 60%
    17:00 +31°C° 0 mm 1 mps 758 mmHg 63%
    18:00 +30°C° 0 mm 1 mps 758 mmHg 66%
    19:00 +29°C° 0.1 mm 1 mps 759 mmHg 70%
    20:00 +29°C° 0.1 mm 2 mps 759 mmHg 73%
    21:00 +28°C° 0.1 mm 2 mps 760 mmHg 77%
    22:00 +27°C° 0 mm 2 mps 760 mmHg 79%
    23:00 +27°C° 0 mm 2 mps 760 mmHg 82%

    Day after tomorrow, 21 September, Friday

    Time Temperature Precipitation Wind Pressure Humidity
    00:00 +27°C° 0 mm 3 mps 760 mmHg 84%
    01:00 +26°C° 0 mm 2 mps 760 mmHg 86%
    02:00 +26°C° 0 mm 2 mps 760 mmHg 87%
    03:00 +26°C° 0 mm 2 mps 760 mmHg 89%
    04:00 +26°C° 0 mm 2 mps 760 mmHg 89%
    05:00 +25°C° 0 mm 2 mps 760 mmHg 90%
    06:00 +25°C° 0 mm 2 mps 760 mmHg 90%
    07:00 +27°C° 0 mm 2 mps 761 mmHg 82%
    08:00 +29°C° 0 mm 3 mps 761 mmHg 74%
    09:00 +31°C° 0 mm 3 mps 761 mmHg 67%
    10:00 +33°C° 0 mm 3 mps 761 mmHg 60%
    11:00 +34°C° 0 mm 3 mps 760 mmHg 53%
    12:00 +35°C° 0 mm 2 mps 760 mmHg 46%
    13:00 +35°C° 0 mm 2 mps 759 mmHg 45%
    14:00 +35°C° 0 mm 2 mps 759 mmHg 45%
    15:00 +35°C° 0 mm 2 mps 758 mmHg 44%
    16:00 +34°C° 0 mm 2 mps 758 mmHg 52%
    17:00 +31°C° 0 mm 2 mps 759 mmHg 59%
    18:00 +29°C° 0 mm 1 mps 759 mmHg 66%
    19:00 +28°C° 0 mm 1 mps 759 mmHg 69%
    20:00 +28°C° 0 mm 2 mps 760 mmHg 72%
    21:00 +27°C° 0 mm 2 mps 760 mmHg 75%
    22:00 +27°C° 0 mm 2 mps 760 mmHg 77%
    23:00 +27°C° 0 mm 2 mps 760 mmHg 79%

    22 September, Saturday

    Time Temperature Precipitation Wind Pressure Humidity
    00:00 +26°C° 0 mm 2 mps 760 mmHg 81%
    01:00 +26°C° 0.2 mm 2 mps 760 mmHg 84%
    02:00 +26°C° 0.2 mm 2 mps 759 mmHg 86%
    03:00 +25°C° 0.2 mm 2 mps 759 mmHg 88%
    04:00 +25°C° 0 mm 2 mps 759 mmHg 89%
    05:00 +25°C° 0 mm 2 mps 759 mmHg 90%
    06:00 +25°C° 0 mm 2 mps 760 mmHg 91%
    07:00 +27°C° 0 mm 2 mps 760 mmHg 82%
    08:00 +29°C° 0 mm 2 mps 760 mmHg 74%
    09:00 +31°C° 0 mm 2 mps 760 mmHg 65%
    10:00 +32°C° 0 mm 2 mps 760 mmHg 59%
    11:00 +34°C° 0 mm 2 mps 759 mmHg 54%
    12:00 +35°C° 0 mm 2 mps 759 mmHg 49%
    13:00 +35°C° 0 mm 2 mps 758 mmHg 50%
    14:00 +35°C° 0 mm 2 mps 758 mmHg 51%
    15:00 +34°C° 0 mm 2 mps 757 mmHg 52%
    16:00 +32°C° 0 mm 2 mps 757 mmHg 56%
    17:00 +31°C° 0 mm 2 mps 757 mmHg 61%
    18:00 +29°C° 0 mm 1 mps 758 mmHg 65%
    19:00 +28°C° 0.2 mm 1 mps 758 mmHg 69%
    20:00 +28°C° 0.2 mm 1 mps 758 mmHg 72%
    21:00 +27°C° 0.2 mm 1 mps 759 mmHg 76%
    22:00 +26°C° 0.2 mm 2 mps 758 mmHg 79%
    23:00 +26°C° 0.2 mm 2 mps 758 mmHg 82%

    23 September, Sunday

    Time Temperature Precipitation Wind Pressure Humidity
    00:00 +26°C° 0.2 mm 2 mps 758 mmHg 85%
    01:00 +25°C° 0.2 mm 2 mps 758 mmHg 87%
    02:00 +25°C° 0.2 mm 2 mps 758 mmHg 88%
    03:00 +25°C° 0.2 mm 2 mps 758 mmHg 90%
    04:00 +25°C° 0.1 mm 2 mps 758 mmHg 90%
    05:00 +25°C° 0.1 mm 2 mps 758 mmHg 91%
    06:00 +25°C° 0.1 mm 2 mps 758 mmHg 91%
    07:00 +27°C° 0 mm 2 mps 759 mmHg 82%
    08:00 +29°C° 0 mm 2 mps 759 mmHg 72%
    09:00 +31°C° 0 mm 2 mps 759 mmHg 62%
    10:00 +32°C° 0 mm 2 mps 759 mmHg 57%
    11:00 +34°C° 0 mm 2 mps 758 mmHg 52%
    12:00 +35°C° 0 mm 2 mps 758 mmHg 46%
    13:00 +35°C° 0 mm 2 mps 757 mmHg 47%
    14:00 +35°C° 0 mm 2 mps 757 mmHg 48%
    15:00 +35°C° 0 mm 2 mps 757 mmHg 49%
    16:00 +32°C° 0 mm 2 mps 757 mmHg 54%
    17:00 +31°C° 0 mm 2 mps 757 mmHg 59%
    18:00 +29°C° 0 mm 1 mps 757 mmHg 64%
    19:00 +29°C° 0 mm 1 mps 758 mmHg 65%
    20:00 +28°C° 0 mm 1 mps 758 mmHg 67%
    21:00 +27°C° 0 mm 1 mps 758 mmHg 68%
    22:00 +27°C° 0 mm 2 mps 758 mmHg 70%
    23:00 +27°C° 0 mm 2 mps 758 mmHg 72%

    24 September, Monday

    Time Temperature Precipitation Wind Pressure Humidity
    00:00 +26°C° 0 mm 2 mps 758 mmHg 74%
    01:00 +26°C° 0 mm 2 mps 758 mmHg 76%
    02:00 +25°C° 0 mm 2 mps 758 mmHg 78%
    03:00 +25°C° 0 mm 2 mps 758 mmHg 81%
    04:00 +25°C° 0 mm 2 mps 758 mmHg 82%
    05:00 +25°C° 0 mm 2 mps 759 mmHg 83%
    06:00 +25°C° 0 mm 2 mps 759 mmHg 85%
    07:00 +27°C° 0 mm 2 mps 759 mmHg 79%
    08:00 +29°C° 0 mm 2 mps 759 mmHg 72%
    09:00 +30°C° 0 mm 3 mps 760 mmHg 66%
    10:00 +31°C° 0.2 mm 2 mps 759 mmHg 62%
    11:00 +32°C° 0.2 mm 2 mps 759 mmHg 58%
    12:00 +34°C° 0.2 mm 2 mps 759 mmHg 54%
    13:00 +32°C° 1.1 mm 2 mps 758 mmHg 61%
    14:00 +31°C° 1.1 mm 2 mps 758 mmHg 67%
    15:00 +30°C° 1.1 mm 2 mps 758 mmHg 74%
    16:00 +29°C° 0.2 mm 1 mps 758 mmHg 78%
    17:00 +28°C° 0.2 mm 1 mps 758 mmHg 82%
    18:00 +27°C° 0.2 mm 1 mps 758 mmHg 86%
    19:00 +27°C° 0.1 mm 1 mps 759 mmHg 85%
    20:00 +27°C° 0.1 mm 1 mps 759 mmHg 85%
    21:00 +27°C° 0.1 mm 1 mps 760 mmHg 84%
    22:00 +26°C° 0.3 mm 1 mps 759 mmHg 86%
    23:00 +26°C° 0.3 mm 1 mps 759 mmHg 88%
    Show more